Simultaneous Nadir Overpasses (SNOs) Predictions

Prediction of SNOs between METOP-A and NOAA-19 Satellite Orbit:

Table of predicted SNOs for the next 14.0 days since TLE Epoch: 7/24/2020
Index Date (METOP-A) Time (METOP-A) Lat,Lon (METOP-A) SZA (METOP-A ) Date (NOAA-19) Time (NOAA-19) Lat,Lon (NOAA-19) SZA (NOAA-19 ) Distance(km) Time Diff (sec)
1 07/27/2020 15:13:17 80.63, -34.51 61.80 07/27/2020 15:12:13 80.61, -34.65 61.77 3.24 64
2 07/27/2020 16:03:59 -80.60, 132.48 118.23 07/27/2020 16:03:18 -80.62, 132.46 118.23 1.45 41
3 07/27/2020 16:54:39 80.62, -59.99 61.80 07/27/2020 16:54:13 80.60, -59.95 61.78 1.79 26
4 07/27/2020 17:45:20 -80.62, 107.32 118.20 07/27/2020 17:45:18 -80.61, 107.16 118.21 3.12 2
5 07/27/2020 18:36:01 80.61, -85.48 61.80 07/27/2020 18:36:14 80.61, -85.61 61.80 2.27 13
6 07/27/2020 19:26:42 -80.61, 81.83 118.20 07/27/2020 19:27:18 -80.60, 81.85 118.20 0.59 36
7 07/27/2020 20:17:23 80.60,-110.97 61.80 07/27/2020 20:18:14 80.60,-110.91 61.82 1.32 51
8 07/27/2020 21:08:04 -80.59, 56.35 118.20 07/27/2020 21:09:19 -80.61, 56.19 118.18 3.18 75
9 08/07/2020 16:26:36 80.64, -52.93 64.66 08/07/2020 16:25:36 80.63, -53.05 64.64 2.38 60
10 08/07/2020 17:17:18 -80.62, 114.16 115.36 08/07/2020 17:16:39 -80.63, 114.06 115.35 2.32 39
11 08/07/2020 18:07:58 80.63, -78.42 64.67 08/07/2020 18:07:36 80.62, -78.35 64.66 1.41 22
12 08/07/2020 18:58:40 -80.61, 88.68 115.35 08/07/2020 18:58:39 -80.63, 88.75 115.33 2.32 1
13 08/07/2020 19:49:20 80.62,-103.91 64.67 08/07/2020 19:49:37 80.63,-104.01 64.68 2.20 17
14 08/07/2020 20:40:01 -80.62, 63.52 115.31 08/07/2020 20:40:39 -80.62, 63.44 115.31 1.45 38
15 08/07/2020 21:30:42 80.61,-129.40 64.68 08/07/2020 21:31:37 80.62,-129.31 64.70 2.29 55
